Overview Statistics Trail Chart Weather Telemetry Raw packets
 

This is the latest recevied weather packets stored in our database for station/object K7NDG. If no packets are shown the sender has not sent any weather packets the latest 10 day(s).

<< 4 5 6 7 8 9 10 >>
Time Temp. Humidity Pressure Rain* Wind** Luminosity Snow
1788535301 10° C 95% 1012.5 hPa 0 mm - 53 W/m² -
1788534996 10° C 95% 1012.6 hPa 0 mm - 59 W/m² -
1788534695 10° C 95% 1012.6 hPa 0 mm - 49 W/m² -
1788534391 10° C 95% 1012.5 hPa 0 mm - 39 W/m² -
1788534086 10° C 95% 1012.8 hPa 0 mm - 28 W/m² -
1788533785 10° C 95% 1012.7 hPa 0 mm - 21 W/m² -
1788533480 10° C 95% 1012.6 hPa 0 mm - 18 W/m² -
1788533176 10° C 95% 1012.6 hPa 0 mm - 15 W/m² -
1788532871 10° C 95% 1012.4 hPa 0 mm - 10 W/m² -
1788532567 10° C 95% 1012.5 hPa 0 mm - 10 W/m² -
1788532263 9.44° C 95% 1012.4 hPa 0 mm - 6 W/m² -
1788531960 9.44° C 96% 1012.5 hPa 0 mm - 5 W/m² -
1788531660 9.44° C 95% 1012.3 hPa 0 mm - 4 W/m² -
1788531355 9.44° C 95% 1012 hPa 0 mm - 4 W/m² -
1788531050 9.44° C 95% 1011.9 hPa 0 mm - 2 W/m² -
1788530746 9.44° C 95% 1012.1 hPa 0 mm - 0 W/m² -
1788530440 9.44° C 96% 1012 hPa 0 mm - 1 W/m² -
1788530139 9.44° C 95% 1011.6 hPa 0 mm - 1 W/m² -
1788529835 9.44° C 95% 1011.6 hPa 0 mm - 1 W/m² -
1788529531 8.89° C 95% 1011.6 hPa 0 mm - 0 W/m² -
1788529225 8.89° C 95% 1011.3 hPa 0 mm - 0 W/m² -
1788528920 8.89° C 95% 1011.4 hPa 0 mm - 0 W/m² -
1788528616 8.89° C 95% 1011.4 hPa 0 mm - 0 W/m² -
1788528310 8.89° C 95% 1011.4 hPa 0 mm - 0 W/m² -
1788528010 8.89° C 95% 1011.5 hPa 0 mm - 0 W/m² -

* Rain latest hour (hover to see other rain measurements)
** Current wind speed in m/s (hover to see current wind gust speed)